Change the Weather History Date:

Thursday, June 27, 2013

  Actual Average Record
Temperature  
Mean Temperature 87 °F 75 °F  
Max Temperature 107 °F 91 °F 112 °F (2012)
Min Temperature 67 °F 59 °F 44 °F (1969)
Degree Days  
Heating Degree Days 0 0  
Month to date heating degree days 16 19  
Since 1 June heating degree days 16 19  
Since 1 July heating degree days 5506 5559  
Cooling Degree Days 22 10  
Month to date cooling degree days 339 189  
Year to date cooling degree days 480 249  
Since 1 June cooling degree days 339 189  
Growing Degree Days 37 (Base 50)    
Moisture  
Dew Point 54 °F    
Average Humidity 41    
Maximum Humidity 70    
Minimum Humidity 12    
Precipitation  
Precipitation 0.00 in 0.07 in 0.96 in (1975)
Month to date precipitation 2.19 2.14  
Year to date precipitation 2.76 6.99  
Sea Level Pressure  
Sea Level Pressure 29.87 in    
Wind  
Wind Speed 10 mph (NE)    
Max Wind Speed 25 mph    
Max Gust Speed 30 mph    
Visibility 9 miles    
Events      
T = Trace of Precipitation, MM = Missing Value Source: NWS Daily Summary

Daily Weather History Graph

Daily Weather History Graph

Search for Another Location

Airport or City:

Trip Planner

Search our weather history database for the weather conditions in past years. The results will help you decide how hot, cold, wet, or windy it might be!

Date:

Astronomy

Jun. 27, 2013 Rise Set
Actual Time 5:30 AM MDT 8:17 PM MDT
Civil Twilight 4:58 AM MDT 8:49 PM MDT
Nautical Twilight 4:19 AM MDT 9:28 PM MDT
Astronomical Twilight 3:34 AM MDT 10:13 PM MDT
Moon 11:21 PM MDT 10:28 AM MDT
Length of Visible Light 15h 50m
Length of Day
14h 47m
Waning Gibbous, 76% of the Moon is Illuminated
Jun 27
Waning Gibbous
Jun 29
Last Quarter
Jul 8
New
Jul 15
First Quarter
Jul 22
Full

Hourly Weather History & Observations

Time (MDT) Temp. Heat Index Dew Point Humidity Pressure Visibility Wind Dir Wind Speed Gust Speed Precip Events Conditions
12:53 AM 82.0 °F 82.1 °F 59.0 °F 45% 29.80 in 9.0 mi SE 16.1 mph - N/A   Clear
1:53 AM 80.1 °F 80.9 °F 60.1 °F 50% 29.81 in 9.0 mi ESE 8.1 mph - N/A   Clear
2:53 AM 77.0 °F - 60.1 °F 56% 29.81 in 9.0 mi SSE 4.6 mph - N/A   Clear
3:53 AM 73.9 °F - 60.1 °F 62% 29.82 in 9.0 mi NNW 4.6 mph - N/A   Clear
4:53 AM 69.1 °F - 59.0 °F 70% 29.83 in 9.0 mi ENE 3.5 mph - N/A   Clear
5:53 AM 69.1 °F - 59.0 °F 70% 29.84 in 7.0 mi Calm Calm - N/A   Clear
6:53 AM 73.0 °F - 61.0 °F 66% 29.85 in 7.0 mi NNW 3.5 mph - N/A   Clear
7:53 AM 78.1 °F - 61.0 °F 56% 29.87 in 6.0 mi Calm Calm - N/A   Haze
8:53 AM 82.9 °F 82.8 °F 59.0 °F 44% 29.88 in 8.0 mi West 6.9 mph - N/A   Clear
9:53 AM 90.0 °F - 50.0 °F 25% 29.88 in 8.0 mi West 6.9 mph - N/A   Clear
10:53 AM 93.9 °F 93.2 °F 59.0 °F 31% 29.88 in 8.0 mi Variable 5.8 mph - N/A   Clear
11:53 AM 99.0 °F 96.9 °F 54.0 °F 22% 29.86 in 9.0 mi West 3.5 mph - N/A   Clear
12:53 PM 104.0 °F - 42.1 °F 12% 29.85 in 10.0 mi ENE 3.5 mph - N/A   Clear
1:53 PM 105.1 °F - 42.1 °F 12% 29.83 in 10.0 mi ENE 8.1 mph - N/A   Clear
2:53 PM 105.1 °F - 45.0 °F 13% 29.84 in 10.0 mi NNE 19.6 mph 29.9 mph N/A   Clear
3:53 PM 104.0 °F - 44.1 °F 13% 29.84 in 10.0 mi NE 10.4 mph 23.0 mph N/A   Clear
4:53 PM 102.0 °F - 48.0 °F 16% 29.85 in 10.0 mi NE 18.4 mph 27.6 mph N/A   Clear
5:53 PM 100.9 °F - 48.9 °F 17% 29.86 in 10.0 mi NNE 18.4 mph 29.9 mph N/A   Clear
6:53 PM 96.1 °F - 48.0 °F 19% 29.88 in 10.0 mi NE 23.0 mph 28.8 mph N/A   Clear
7:53 PM 93.0 °F - 48.9 °F 22% 29.90 in 10.0 mi NE 17.3 mph - N/A   Clear
8:53 PM 89.1 °F - 51.1 °F 27% 29.93 in 10.0 mi ENE 16.1 mph - N/A   Clear
9:53 PM 84.9 °F 83.2 °F 53.1 °F 33% 29.97 in 10.0 mi East 15.0 mph - N/A   Clear
10:53 PM 82.0 °F 81.6 °F 55.9 °F 41% 29.98 in 10.0 mi ENE 13.8 mph - N/A   Clear
11:53 PM 80.1 °F 81.1 °F 61.0 °F 52% 29.99 in 10.0 mi East 15.0 mph 20.7 mph N/A   Clear